Regional Weather Roundup
Issued by NWS

Home | Current Version | Previous Version | Graphics & Text | Print | Product List | Glossary Off
Versions: 1 2 3 4 5 6 7 8 9 10 11 12 13 14 15 16 17 18 19 20 21 22 23 24 25 26 27 28 29 30 31 32 33 34 35 36 37 38 39 40 41 42 43 44 45 46 47 48 49 50

805
ASUS43 KTOP 020008
RWRKS

WEATHER ROUNDUP FOR KANSAS
NATIONAL WEATHER SERVICE GOODLAND KS
700 PM CDT SUN MAY 01 2016

NOTE:  "FAIR" INDICATES FEW OR NO CLOUDS BELOW 12,000 FEET WITH NO
SIGNIFICANT WEATHER AND/OR OBSTRUCTIONS TO VISIBILITY.

KSZ001>006-013>018-027>032-041>047-020100-
NORTHWEST KANSAS

CITY           SKY/WX    TMP DP  RH WIND       PRES   REMARKS
GOODLAND       PTSUNNY   51  31  46 N20G25    30.21R
6HR MIN TEMP:  46; 6HR MAX TEMP:  54;

HAYS           CLOUDY    48  34  57 N13       30.17F
HILL CITY      CLOUDY    49  39  68 NE8       30.20R
6HR MIN TEMP:  47; 6HR MAX TEMP:  52;

RUSSELL        CLOUDY    48  40  73 N15       30.15S
6HR MIN TEMP:  48; 6HR MAX TEMP:  51;

$$

KSZ061>065-074>080-084>089-020100-
SOUTHWEST KANSAS

CITY           SKY/WX    TMP DP  RH WIND       PRES   REMARKS
DODGE CITY     CLOUDY    46  38  73 N14       30.17R
6HR MIN TEMP:  44; 6HR MAX TEMP:  47;

ELKHART          N/A     43  39  86 N5          N/A
GARDEN CITY    CLOUDY    46  38  73 N13       30.18R
6HR MIN TEMP:  44; 6HR MAX TEMP:  48;

GREAT BEND     CLOUDY    48  37  66 N13       30.15S
LIBERAL        CLOUDY    45  37  76 N13       30.19S
$$

KSZ066>073-081>083-090>101-020100-
SOUTHEAST KANSAS

CITY           SKY/WX    TMP DP  RH WIND       PRES   REMARKS
CHANUTE        PTSUNNY   60  48  64 NW14      30.04F
6HR MIN TEMP:  59; 6HR MAX TEMP:  63;

COFFEYVILLE    PTSUNNY   59  47  64 N8        30.04F
6HR MIN TEMP:  59; 6HR MAX TEMP:  64;

HUTCHINSON     CLOUDY    52  41  66 N8        30.12F
6HR MIN TEMP:  51; 6HR MAX TEMP:  54;

MEDICINE LODGE   N/A     50  41  71 N13G22    30.12R
NEWTON         CLOUDY    48  39  71 N15       30.12F
PARSONS        CLOUDY    59  48  67 NW9       30.05F
6HR MIN TEMP:  59; 6HR MAX TEMP:  64;

WICHITA INTL   CLOUDY    53  41  63 N15G24    30.09F
6HR MIN TEMP:  53; 6HR MAX TEMP:  56;

WICHITA JABRA  CLOUDY    51  43  74 N15       30.08F
6HR MIN TEMP:  51; 6HR MAX TEMP:  55;

WICHITA MCCONL CLOUDY    52  43  72 N15       30.08F
WINFIELD       CLOUDY    54  44  69 N10       30.10R
6HR MIN TEMP:  53; 6HR MAX TEMP:  60;

$$

KSZ007>012-019>026-033>040-048>060-102>105-020100-
NORTHEAST KANSAS

CITY           SKY/WX    TMP DP  RH WIND       PRES   REMARKS
CONCORDIA      CLOUDY    47  40  76 N13       30.16R
6HR MIN TEMP:  47; 6HR MAX TEMP:  50;

EMPORIA        CLOUDY    53  44  71 N15       30.08S
6HR MIN TEMP:  53; 6HR MAX TEMP:  61;

LAWRENCE       CLOUDY    53  45  74 NW12      30.08S
6HR MIN TEMP:  53; 6HR MAX TEMP:  62; 6HR PCP: TRACE;

MANHATTAN      CLOUDY    52  42  69 N8        30.12S
6HR MIN TEMP:  51; 6HR MAX TEMP:  58;

OLATHE IND     CLOUDY    55  45  68 NW16      30.07R
6HR MIN TEMP:  55; 6HR MAX TEMP:  60;

OLATHE EXE     CLOUDY    55  45  68 NW14      30.06R
6HR MIN TEMP:  54; 6HR MAX TEMP:  60;

SALINA         CLOUDY    51  42  71 N16       30.14F
6HR MIN TEMP:  51; 6HR MAX TEMP:  56;

TOPEKA BILLARD CLOUDY    51  44  77 N12       30.10S
6HR MIN TEMP:  51; 6HR MAX TEMP:  61;

TOPEKA FORBES  CLOUDY    53  44  71 N15       30.09S
6HR MIN TEMP:  53; 6HR MAX TEMP:  63; 6HR PCP: TRACE;

$$




USA.gov is the U.S. government's official web portal to all federal, state and local government web resources and services.